Knox, IN

4:44 PM CDT on March 28, 2017 (GMT -0500)
Starke County

Weather History for KOXI - February, 2013

Change the Weather History Date:

Wednesday, February 13, 2013

  Actual Average (KSBN) Record (KSBN)
Temperature  
Mean Temperature 32 °F -  
Max Temperature 44 °F 33 °F 65 °F (1938)
Min Temperature 21 °F 18 °F -16 °F (1905)
Degree Days  
Heating Degree Days 32    
Moisture  
Dew Point 27 °F    
Average Humidity 84    
Maximum Humidity 99    
Minimum Humidity 56    
Precipitation  
Precipitation 0.00 in - - ()
Sea Level Pressure  
Sea Level Pressure 29.80 in    
Wind  
Wind Speed 5 mph (SSW)    
Max Wind Speed 14 mph    
Max Gust Speed 18 mph    
Visibility 7 miles    
Events      
Averages and records for this station are not official NWS values.
T = Trace of Precipitation, MM = Missing Value Source: NWS Daily Summary

Daily Weather History Graph

Daily Weather History Graph

Search for Another Location

Airport or City:

Trip Planner

Search our weather history database for the weather conditions in past years. The results will help you decide how hot, cold, wet, or windy it might be!

Date:

Astronomy

Feb. 13, 2013 Rise Set
Actual Time 6:43 AM CST 5:18 PM CST
Civil Twilight 6:15 AM CST 5:46 PM CST
Nautical Twilight 5:42 AM CST 6:19 PM CST
Astronomical Twilight 5:10 AM CST 6:51 PM CST
Moon 8:09 AM CST (2/13) 9:24 PM CST (2/13)
Length of Visible Light 11h 31m
Length of Day
10h 34m
Waxing Crescent, 14% of the Moon is Illuminated
Feb 13
Waxing Crescent
Feb 17
First Quarter
Feb 25
Full
Mar 4
Last Quarter
Mar 11
New

Hourly Weather History & Observations

Time (CST) Temp. Windchill Dew Point Humidity Pressure Visibility Wind Dir Wind Speed Gust Speed Precip Events Conditions
12:15 AM 23.7 °F - 23.4 °F 99% 29.94 in 5.0 mi Calm Calm - N/A   Clear
12:35 AM 23.2 °F 18.7 °F 22.8 °F 99% 29.93 in 4.0 mi NNW 3.5 mph - N/A   Clear
1:15 AM 22.8 °F - 22.6 °F 99% 29.91 in 4.0 mi Calm Calm - N/A   Clear
1:35 AM 22.8 °F 16.7 °F 22.3 °F 98% 29.91 in 4.0 mi South 4.6 mph - N/A   Clear
1:55 AM 22.6 °F 16.5 °F 22.1 °F 98% 29.91 in 5.0 mi SSW 4.6 mph - N/A   Clear
2:15 AM 22.3 °F 16.1 °F 21.9 °F 99% 29.90 in 5.0 mi South 4.6 mph - N/A   Clear
2:35 AM 22.3 °F - 21.9 °F 99% 29.90 in 5.0 mi Calm Calm - N/A   Clear
2:55 AM 21.7 °F 17.0 °F 21.2 °F 98% 29.89 in 5.0 mi SE 3.5 mph - N/A   Clear
3:15 AM 21.4 °F - 20.7 °F 97% 29.88 in 5.0 mi Calm Calm - N/A   Clear
3:35 AM 21.4 °F - 20.8 °F 98% 29.88 in 4.0 mi Calm Calm - N/A   Clear
3:55 AM 21.6 °F - 21.0 °F 98% 29.87 in 4.0 mi Calm Calm - N/A   Clear
4:15 AM 21.7 °F 17.0 °F 21.4 °F 99% 29.87 in 4.0 mi ESE 3.5 mph - N/A   Clear
4:35 AM 21.2 °F - 20.8 °F 99% 29.86 in 4.0 mi Calm Calm - N/A   Clear
4:55 AM 21.2 °F 16.4 °F 20.8 °F 99% 29.85 in 4.0 mi SE 3.5 mph - N/A   Clear
5:15 AM 21.0 °F - 20.5 °F 98% 29.85 in 4.0 mi Calm Calm - N/A   Clear
5:35 AM 21.0 °F 16.2 °F 20.5 °F 98% 29.84 in 5.0 mi SE 3.5 mph - N/A   Clear
5:55 AM 21.2 °F 14.9 °F 20.7 °F 98% 29.83 in 4.0 mi SE 4.6 mph - N/A   Clear
6:15 AM 21.2 °F 14.9 °F 20.5 °F 97% 29.82 in 5.0 mi SE 4.6 mph - N/A   Clear
6:35 AM 21.6 °F 15.3 °F 20.8 °F 97% 29.82 in 5.0 mi SSE 4.6 mph - N/A   Clear
6:55 AM 21.9 °F 15.7 °F 21.0 °F 96% 29.82 in 4.0 mi SE 4.6 mph - N/A   Clear
7:15 AM 22.1 °F 15.9 °F 21.4 °F 97% 29.82 in 4.0 mi SSE 4.6 mph - N/A   Clear
7:35 AM 23.5 °F 19.1 °F 22.8 °F 97% 29.82 in 4.0 mi SSE 3.5 mph - N/A   Clear
7:55 AM 24.6 °F 20.3 °F 23.7 °F 96% 29.82 in 4.0 mi SSE 3.5 mph - N/A   Clear
8:15 AM 26.1 °F 19.4 °F 24.8 °F 95% 29.82 in 5.0 mi South 5.8 mph - N/A   Clear
8:35 AM 27.5 °F 20.2 °F 26.1 °F 94% 29.82 in 5.0 mi South 6.9 mph - N/A   Clear
8:55 AM 28.6 °F 19.9 °F 26.8 °F 93% 29.82 in 5.0 mi South 9.2 mph - N/A   Clear
9:15 AM 30.2 °F 22.6 °F 28.0 °F 92% 29.83 in 5.0 mi South 8.1 mph - N/A   Clear
9:35 AM 31.6 °F 23.1 °F 28.8 °F 89% 29.82 in 5.0 mi South 10.4 mph - N/A   Clear
10:15 AM 34.2 °F 25.7 °F 29.5 °F 83% 29.82 in 7.0 mi South 11.5 mph - N/A   Clear
10:35 AM 35.1 °F 26.9 °F 29.7 °F 81% 29.82 in 7.0 mi SSW 11.5 mph - N/A   Clear
10:55 AM 36.0 °F 28.5 °F 29.3 °F 77% 29.80 in 7.0 mi South 10.4 mph - N/A   Clear
11:15 AM 37.0 °F 29.8 °F 29.7 °F 75% 29.80 in 7.0 mi South 10.4 mph - N/A   Clear
11:35 AM 38.3 °F 31.9 °F 29.7 °F 71% 29.79 in 10.0 mi SW 9.2 mph - N/A   Clear
11:55 AM 39.2 °F 32.0 °F 29.7 °F 69% 29.78 in 10.0 mi SSW 11.5 mph - N/A   Clear
12:15 PM 39.9 °F 33.4 °F 29.7 °F 67% 29.77 in 10.0 mi SW 10.4 mph - N/A   Clear
12:35 PM 40.8 °F 35.0 °F 30.6 °F 67% 29.75 in 10.0 mi SSW 9.2 mph - N/A   Clear
12:55 PM 41.7 °F 35.6 °F 30.2 °F 64% 29.75 in 10.0 mi SW 10.4 mph - N/A   Clear
1:15 PM 42.4 °F 36.1 °F 30.4 °F 62% 29.74 in 10.0 mi SW 11.5 mph 16.1 mph N/A   Clear
1:35 PM 43.0 °F 36.8 °F 30.2 °F 61% 29.73 in 10.0 mi SW 11.5 mph - N/A   Clear
1:55 PM 43.3 °F 36.8 °F 30.0 °F 59% 29.73 in 10.0 mi WSW 12.7 mph 17.3 mph N/A   Clear
2:15 PM 43.7 °F 37.3 °F 30.0 °F 59% 29.72 in 10.0 mi SW 12.7 mph - N/A   Clear
2:35 PM 44.1 °F 37.4 °F 29.1 °F 56% 29.72 in 10.0 mi SW 13.8 mph - N/A   Clear
2:55 PM 44.2 °F 38.4 °F 29.7 °F 57% 29.72 in 10.0 mi WSW 11.5 mph - N/A   Clear
3:15 PM 44.4 °F 38.2 °F 29.5 °F 56% 29.72 in 10.0 mi WSW 12.7 mph - N/A   Clear
3:35 PM 44.1 °F 37.7 °F 29.8 °F 57% 29.72 in 10.0 mi SW 12.7 mph - N/A   Clear
3:55 PM 43.9 °F 37.2 °F 30.0 °F 58% 29.72 in 10.0 mi WSW 13.8 mph 18.4 mph N/A   Clear
4:15 PM 43.5 °F 37.5 °F 30.4 °F 60% 29.73 in 10.0 mi WSW 11.5 mph - N/A   Clear
4:35 PM 43.2 °F 37.0 °F 31.3 °F 63% 29.73 in 10.0 mi SW 11.5 mph - N/A   Clear
4:55 PM 42.3 °F 36.3 °F 31.3 °F 65% 29.73 in 10.0 mi WSW 10.4 mph - N/A   Clear
5:15 PM 40.8 °F 35.0 °F 31.1 °F 68% 29.73 in 10.0 mi WSW 9.2 mph - N/A   Clear
5:35 PM 39.4 °F 33.2 °F 30.9 °F 72% 29.74 in 10.0 mi SW 9.2 mph - N/A   Scattered Clouds
5:55 PM 37.8 °F 32.5 °F 30.7 °F 76% 29.74 in 10.0 mi SW 6.9 mph - N/A   Clear
6:15 PM 36.1 °F 31.4 °F 30.2 °F 79% 29.75 in 10.0 mi SW 5.8 mph - N/A   Clear
6:35 PM 36.0 °F 32.1 °F 30.4 °F 80% 29.75 in 10.0 mi WSW 4.6 mph - N/A   Clear
6:55 PM 35.2 °F 30.3 °F 30.2 °F 82% 29.76 in 10.0 mi SW 5.8 mph - N/A   Clear
7:15 PM 34.2 °F 30.0 °F 30.6 °F 87% 29.76 in 10.0 mi SW 4.6 mph - N/A   Clear
7:35 PM 33.8 °F 30.8 °F 30.7 °F 89% 29.76 in 10.0 mi SW 3.5 mph - N/A   Clear
7:55 PM 33.8 °F 29.6 °F 30.7 °F 89% 29.76 in 10.0 mi SW 4.6 mph - N/A   Clear
8:15 PM 33.3 °F 28.9 °F 30.4 °F 89% 29.76 in 10.0 mi SW 4.6 mph - N/A   Clear
8:35 PM 33.4 °F 29.1 °F 30.4 °F 89% 29.76 in 10.0 mi SW 4.6 mph - N/A   Clear
8:55 PM 34.2 °F 31.2 °F 30.7 °F 87% 29.77 in 10.0 mi SW 3.5 mph - N/A   Clear
9:15 PM 33.4 °F 30.4 °F 30.4 °F 89% 29.77 in 10.0 mi WSW 3.5 mph - N/A   Clear
9:35 PM 32.7 °F 28.3 °F 30.4 °F 91% 29.77 in 10.0 mi SW 4.6 mph - N/A   Clear
9:55 PM 32.4 °F 27.9 °F 30.0 °F 91% 29.77 in 10.0 mi South 4.6 mph - N/A   Clear
10:15 PM 31.8 °F 26.2 °F 29.8 °F 92% 29.77 in 7.0 mi South 5.8 mph - N/A   Scattered Clouds
10:35 PM 32.2 °F 26.7 °F 30.7 °F 94% 29.77 in 7.0 mi SSW 5.8 mph - N/A   Overcast
10:55 PM 32.7 °F 27.3 °F 31.3 °F 94% 29.77 in 7.0 mi SSW 5.8 mph - N/A   Overcast
11:15 PM 33.1 °F 26.9 °F 31.8 °F 95% 29.77 in 7.0 mi South 6.9 mph - N/A   Overcast
11:35 PM 33.3 °F 27.9 °F 31.8 °F 94% 29.77 in 7.0 mi South 5.8 mph - N/A   Overcast
11:55 PM 33.1 °F 26.9 °F 31.8 °F 95% 29.76 in 7.0 mi South 6.9 mph - N/A   Overcast